Weather History for Brookhaven, MS

Change the Weather History Date:

Tuesday, April 23, 2013

  Actual Average (KMCB) Record (KMCB)
Temperature  
Mean Temperature 71 °F -  
Max Temperature 80 °F 79 °F 88 °F (2008)
Min Temperature 62 °F 56 °F 40 °F (1993)
Cooling Degree Days 6    
Growing Degree Days 21 (Base 50)    
Moisture  
Dew Point 63 °F    
Average Humidity 78    
Maximum Humidity 94    
Minimum Humidity 54    
Precipitation  
Precipitation 0.00 in - - ()
Sea Level Pressure  
Sea Level Pressure 30.05 in    
Wind  
Wind Speed 7 mph (SSE)    
Max Wind Speed 12 mph    
Max Gust Speed 18 mph    
Visibility 9 miles    
Events      
Averages and records for this station are not official NWS values.
T = Trace of Precipitation, MM = Missing Value Source: NWS Daily Summary

Daily Weather History Graph

Daily Weather History Graph

Search for Another Location

Airport:

Trip Planner

Search our weather history database for the weather conditions in past years. The results will help you decide how hot, cold, wet, or windy it might be!

Date:

Astronomy

Apr. 23, 2013 Rise Set
Actual Time 6:24 AM CDT 7:36 PM CDT
Civil Twilight 5:58 AM CDT 8:01 PM CDT
Nautical Twilight 5:28 AM CDT 8:31 PM CDT
Astronomical Twilight 4:57 AM CDT 9:03 PM CDT
Moon 5:37 PM CDT (4/23) 4:43 AM CDT (4/23)
Length of Visible Light 14h 02m
Length of Day
13h 12m
Waxing Gibbous, 94% of the Moon is Illuminated
Apr 23
Waxing Gibbous
Apr 25
Full
May 2
Last Quarter
May 9
New
May 17
First Quarter

Hourly Weather History & Observations

Time (CDT) Temp. Heat Index Dew Point Humidity Pressure Visibility Wind Dir Wind Speed Gust Speed Precip Events Conditions
12:15 AM 62.6 °F - 60.8 °F 94% 30.08 in 9.0 mi SE 4.6 mph - N/A   Clear
12:35 AM 62.6 °F - 60.8 °F 94% 30.08 in 9.0 mi SSE 9.2 mph - N/A   Mostly Cloudy
12:55 AM 62.6 °F - 60.8 °F 94% 30.08 in 10.0 mi SE 8.1 mph - N/A   Overcast
1:15 AM 62.6 °F - 60.8 °F 94% 30.08 in 8.0 mi SSE 5.8 mph - N/A   Overcast
1:35 AM 64.4 °F - 60.8 °F 88% 30.08 in 9.0 mi SE 6.9 mph - N/A   Overcast
1:55 AM 64.4 °F - 60.8 °F 88% 30.08 in 9.0 mi SE 4.6 mph - N/A   Overcast
2:15 AM 64.4 °F - 62.6 °F 94% 30.07 in 9.0 mi SE 3.5 mph - N/A   Overcast
2:35 AM 64.4 °F - 60.8 °F 88% 30.06 in 8.0 mi SE 5.8 mph - N/A   Overcast
2:55 AM 64.4 °F - 60.8 °F 88% 30.06 in 9.0 mi SE 8.1 mph - N/A   Overcast
3:15 AM 64.4 °F - 60.8 °F 88% 30.06 in 10.0 mi SE 6.9 mph - N/A   Overcast
3:35 AM 64.4 °F - 60.8 °F 88% 30.06 in 9.0 mi SE 6.9 mph - N/A   Overcast
3:55 AM 64.4 °F - 60.8 °F 88% 30.06 in 9.0 mi SE 5.8 mph - N/A   Overcast
4:15 AM 64.4 °F - 60.8 °F 88% 30.05 in 9.0 mi SE 5.8 mph - N/A   Overcast
4:35 AM 64.4 °F - 60.8 °F 88% 30.05 in 9.0 mi SE 8.1 mph - N/A   Overcast
4:55 AM 64.4 °F - 60.8 °F 88% 30.06 in 8.0 mi SE 5.8 mph - N/A   Overcast
5:15 AM 64.4 °F - 60.8 °F 88% 30.06 in 10.0 mi SE 9.2 mph 16.1 mph N/A   Overcast
5:35 AM 64.4 °F - 60.8 °F 88% 30.06 in 9.0 mi SE 5.8 mph - N/A   Overcast
5:55 AM 64.4 °F - 60.8 °F 88% 30.06 in 10.0 mi SE 8.1 mph - N/A   Overcast
6:15 AM 64.4 °F - 60.8 °F 88% 30.06 in 10.0 mi SE 6.9 mph - N/A   Overcast
6:35 AM 64.4 °F - 60.8 °F 88% 30.06 in 8.0 mi SE 6.9 mph - N/A   Overcast
6:55 AM 64.4 °F - 60.8 °F 88% 30.07 in 8.0 mi SE 5.8 mph - N/A   Mostly Cloudy
7:15 AM 64.4 °F - 60.8 °F 88% 30.07 in 8.0 mi SE 5.8 mph - N/A   Mostly Cloudy
7:35 AM 64.4 °F - 60.8 °F 88% 30.08 in 8.0 mi SE 5.8 mph - N/A   Overcast
7:55 AM 64.4 °F - 62.6 °F 94% 30.08 in 8.0 mi SSE 6.9 mph - N/A   Overcast
8:15 AM 64.4 °F - 62.6 °F 94% 30.08 in 9.0 mi SE 8.1 mph - N/A   Overcast
8:35 AM 66.2 °F - 62.6 °F 88% 30.09 in 8.0 mi SE 4.6 mph - N/A   Overcast
8:55 AM 66.2 °F - 62.6 °F 88% 30.09 in 9.0 mi SSE 9.2 mph - N/A   Overcast
9:15 AM 66.2 °F - 62.6 °F 88% 30.09 in 7.0 mi SSE 5.8 mph - N/A   Overcast
9:35 AM 68.0 °F - 62.6 °F 83% 30.10 in 9.0 mi SE 8.1 mph 16.1 mph N/A   Overcast
9:55 AM 68.0 °F - 62.6 °F 83% 30.10 in 8.0 mi SSE 8.1 mph - N/A   Overcast
10:15 AM 69.8 °F - 62.6 °F 78% 30.11 in 9.0 mi SSE 10.4 mph - N/A   Mostly Cloudy
10:35 AM 69.8 °F - 62.6 °F 78% 30.11 in 9.0 mi SSE 8.1 mph - N/A   Overcast
10:55 AM 69.8 °F - 62.6 °F 78% 30.11 in 8.0 mi South 8.1 mph - N/A   Overcast
11:15 AM 71.6 °F - 62.6 °F 73% 30.10 in 7.0 mi South 8.1 mph - N/A   Mostly Cloudy
11:35 AM 71.6 °F - 62.6 °F 73% 30.09 in 8.0 mi SE 8.1 mph - N/A   Mostly Cloudy
11:55 AM 73.4 °F - 64.4 °F 73% 30.09 in 8.0 mi SSE 9.2 mph - N/A   Mostly Cloudy
12:15 PM 73.4 °F - 64.4 °F 73% 30.08 in 9.0 mi SSE 9.2 mph - N/A   Overcast
12:55 PM 75.2 °F - 64.4 °F 69% 30.07 in 9.0 mi SSE 9.2 mph - N/A   Mostly Cloudy
1:15 PM 75.2 °F - 64.4 °F 69% 30.07 in 7.0 mi SSE 8.1 mph - N/A   Mostly Cloudy
1:35 PM 75.2 °F - 62.6 °F 65% 30.06 in 6.0 mi SSE 8.1 mph - N/A   Haze
1:55 PM 77.0 °F - 64.4 °F 65% 30.05 in 8.0 mi South 6.9 mph - N/A   Mostly Cloudy
2:15 PM 77.0 °F - 64.4 °F 65% 30.05 in 10.0 mi SE 10.4 mph - N/A   Mostly Cloudy
2:35 PM 78.8 °F - 64.4 °F 61% 30.05 in 9.0 mi South 9.2 mph - N/A   Mostly Cloudy
2:55 PM 78.8 °F - 64.4 °F 61% 30.04 in 8.0 mi SSW 9.2 mph - N/A   Mostly Cloudy
3:15 PM 80.6 °F 81.8 °F 62.6 °F 54% 30.03 in 9.0 mi SSE 11.5 mph - N/A   Scattered Clouds
3:35 PM 80.6 °F 81.8 °F 62.6 °F 54% 30.01 in 8.0 mi South 9.2 mph - N/A   Partly Cloudy
3:55 PM 80.6 °F 81.8 °F 62.6 °F 54% 30.01 in 8.0 mi SE 10.4 mph - N/A   Scattered Clouds
4:15 PM 80.6 °F 81.8 °F 62.6 °F 54% 30.00 in 8.0 mi SSE 9.2 mph - N/A   Partly Cloudy
4:35 PM 78.8 °F - 64.4 °F 61% 30.00 in 10.0 mi SE 4.6 mph - N/A   Scattered Clouds
4:55 PM 80.6 °F 82.3 °F 64.4 °F 58% 29.99 in 10.0 mi SE 9.2 mph - N/A   Scattered Clouds
5:15 PM 80.6 °F 81.8 °F 62.6 °F 54% 29.98 in 9.0 mi SSE 8.1 mph - N/A   Clear
5:35 PM 80.6 °F 81.8 °F 62.6 °F 54% 29.98 in 8.0 mi SE 8.1 mph - N/A   Scattered Clouds
5:55 PM 80.6 °F 81.8 °F 62.6 °F 54% 29.98 in 10.0 mi SE 9.2 mph - N/A   Partly Cloudy
6:15 PM 78.8 °F - 64.4 °F 61% 29.98 in 9.0 mi SE 9.2 mph - N/A   Scattered Clouds
6:35 PM 77.0 °F - 64.4 °F 65% 29.99 in 9.0 mi SE 5.8 mph - N/A   Partly Cloudy
6:55 PM 77.0 °F - 64.4 °F 65% 29.98 in 8.0 mi SSE 6.9 mph - N/A   Scattered Clouds
7:15 PM 75.2 °F - 64.4 °F 69% 29.98 in 9.0 mi SSE 6.9 mph - N/A   Partly Cloudy
7:35 PM 73.4 °F - 64.4 °F 73% 29.99 in 8.0 mi SSE 6.9 mph - N/A   Clear
7:55 PM 73.4 °F - 64.4 °F 73% 29.99 in 9.0 mi SE 6.9 mph - N/A   Clear
8:15 PM 71.6 °F - 64.4 °F 78% 30.00 in 9.0 mi SE 6.9 mph - N/A   Clear
8:35 PM 71.6 °F - 64.4 °F 78% 30.00 in 10.0 mi SE 8.1 mph 16.1 mph N/A   Clear
8:55 PM 71.6 °F - 66.2 °F 83% 30.01 in 9.0 mi SE 6.9 mph - N/A   Clear
9:15 PM 69.8 °F - 64.4 °F 83% 30.02 in 10.0 mi SSE 9.2 mph 17.3 mph N/A   Clear
9:35 PM 69.8 °F - 64.4 °F 83% 30.02 in 10.0 mi SE 10.4 mph 17.3 mph N/A   Clear
9:55 PM 69.8 °F - 64.4 °F 83% 30.03 in 10.0 mi SE 10.4 mph - N/A   Scattered Clouds
10:15 PM 69.8 °F - 64.4 °F 83% 30.04 in 10.0 mi SE 11.5 mph 18.4 mph N/A   Mostly Cloudy
10:35 PM 69.8 °F - 64.4 °F 83% 30.04 in 10.0 mi SSE 9.2 mph - N/A   Overcast
10:55 PM 69.8 °F - 64.4 °F 83% 30.05 in 9.0 mi SSE 8.1 mph - N/A   Overcast
11:15 PM 69.8 °F - 64.4 °F 83% 30.05 in 10.0 mi SSE 8.1 mph 17.3 mph N/A   Overcast
11:35 PM 69.8 °F - 64.4 °F 83% 30.05 in 10.0 mi SSE 10.4 mph - N/A   Overcast
11:55 PM 69.8 °F - 64.4 °F 83% 30.05 in 9.0 mi SSE 9.2 mph - N/A   Overcast